Погода в Броварах

Украина / Киевская область     50°30′39″N   30°47′27″E
темп.,
°C
ветер,
м/с
пор.,
м/с
влажн.,
%
обл.,
%
осадки,
мм/ч
давл.,
гПа
погр.,
м
22 января, сб
сб2223:00−3з71485100 0.0 1005758
02:00−3з6129196 0.1 1005666
05:00−2зсз61185100 0.2 1005709
08:00−4з51087100 0.2 1007584
11:00−3з588197 0.0 1009662
14:00−2з4677100 0.2 1009843
17:00−3сз388996 0.7 1011255
20:00−6сз498963 0.7 1013268
23 января, вс
вс2323:00−5зсз379385 0.1 1015353
02:00−5зсз369499 0.3 1015322
05:00−6сз369061 0.2 1016276
08:00−8ссз249683 0.3 101997
11:00−6св568796 0.2 1022430
14:00−6ссв468498 0.2 1024484
17:00−8с489494 0.0 1028267
20:00−8ссв489590 0.1 1030276
24 января, пн
пн2423:00−9с489672 0.0 1032202
02:00−10с499670 0.1 1033212
05:00−10с4109568 0.0 1033262
08:00−10с5139484 0.0 1034320
11:00−7с6138694 0.0 1033398
14:00−6с6138392 0.0 1031529
17:00−6с71390100 0.1 1031563
20:00−7с51193100 0.7 1030454
25 января, вт
вт2523:00−8с599597 0.1 1030296
02:00−9с4896100 0.1 1029263
05:00−10ссз499590 0.0 1027256
08:00−11ссз489687 0.1 1027247
11:00−8ссз458899 0.0 1026328
14:00−6ссз348169 0.1 1023404
17:00−9зсз119193 0.0 102210
20:00−10юз119614 0.0 102114
26 января, ср
ср2623:00−11ю1196100 0.0 102011
02:00−10ююв1196100 0.0 101916
05:00−11вюв1196100 0.0 102017
08:00−11ссв119694 0.0 102124
11:00−7ссв238697 0.1 1022245
14:00−5ссз368894 0.1 1022468
17:00−6ссз379699 0.2 1022260
20:00−7ссз489598 0.3 1023309